Regional Weather Roundup
Issued by NWS

Home | Current Version | Previous Version | Text Only | Print | Product List | Glossary Off
Versions: 1 2 3 4 5 6 7 8 9 10 11 12 13 14 15 16 17 18 19 20 21 22 23 24 25 26 27 28 29 30 31 32 33 34 35 36 37 38 39 40 41 42 43 44 45 46 47 48 49 50

000
ASUS43 KBIS 270010
RWRND

NORTH DAKOTA REGIONAL WEATHER ROUNDUP
NATIONAL WEATHER SERVICE BISMARCK ND
700 PM CDT TUE JUL 26 2016

NOTE: "FAIR" INDICATES FEW OR NO CLOUDS BELOW 12,000 FEET WITH NO
SIGNIFICANT WEATHER AND/OR OBSTRUCTIONS TO VISIBILITY.


NDZ001>003-009>011-017-270100-
NORTHWEST NORTH DAKOTA

CITY           SKY/WX    TMP DP  RH WIND       PRES   REMARKS
WILLISTON      CLOUDY    78  54  43 NE12      30.08R
6HR MIN TEMP:  77; 6HR MAX TEMP:  81; 6HR PCP: TRACE;

MINOT          CLOUDY    78  60  53 N6        30.04S
MINOT AFB      CLOUDY    76  58  52 N10       30.04R
$$

NDZ018>021-031>035-040>046-270100-
SOUTHWEST NORTH DAKOTA

CITY           SKY/WX    TMP DP  RH WIND       PRES   REMARKS
BISMARCK       PTSUNNY   79  65  62 N12       29.99F
6HR MIN TEMP:  73; 6HR MAX TEMP:  84; 6HR PCP: TRACE;

DICKINSON      SUNNY     75  58  55 NE15      30.06F
GARRISON         N/A     70  68  93 NW5       30.06F
6HR MIN TEMP:  69; 6HR MAX TEMP:  77; 6HR PCP:  0.09;

HETTINGER ARPT SUNNY     78  60  53 NE13G23   30.06F
$$

NDZ004>008-012>016-024-026-027-054-270100-
NORTHEAST NORTH DAKOTA

CITY           SKY/WX    TMP DP  RH WIND       PRES   REMARKS
GRAND FORKS    PTSUNNY   81  69  67 N15G23    29.93F
GRND FRKS AFB  PTSUNNY   79  68  69 N15G22    29.95F
DEVILS LAKE    CLOUDY    67  65  93 NE10      30.04R
$$

NDZ022-023-025-028>030-036>039-047>053-270100-
SOUTHEAST NORTH DAKOTA

CITY           SKY/WX    TMP DP  RH WIND       PRES   REMARKS
FARGO          CLOUDY    81  72  74 CALM      29.92S
6HR MIN TEMP:  80; 6HR MAX TEMP:  86;

JAMESTOWN      LGT RAIN  72  67  84 NW3       29.98F
$$




USA.gov is the U.S. government's official web portal to all federal, state and local government web resources and services.